Location: Aalsum
(53.3404°N, 6.0062°E)
Time: 05:16:18
(UTC+00:00)

Cosmos 540 Rocket - Pass Details

Date: 28 January 2023
Orbit: 740 x 751 km, 74.1° (Epoch: 24 March)

Event Time Altitude Azimuth Distance (km) Brightness Sun altitude
Rises 17:46:40 0° 336° (NNW) 3,214 6.9 -14.1°
Reaches altitude 10° 17:49:19 10° 347° (NNW) 2,285 6.0 -14.5°
Maximum altitude 17:53:53 31° 49° (NE) 1,313 4.3 -15.2°
Enters shadow 17:55:39 25° 84° (E) 1,498 4.4 -15.4°
